Location: Home
(42.5358°N, 72.7383°W)
Time: 01:25:16
(UTC-04:00)

DELTA 1 DEB - Pass Details

Date: 01 July 2022
Orbit: 600 x 774 km, 98.5° (Epoch: 16 August)

Event Time Altitude Azimuth Distance (km) Brightness Sun altitude
Exits shadow 23:33:14 24° 222° (SW) 1,526 ? -21.8°
Maximum altitude 23:35:14 33° 263° (W) 1,262 ? -21.9°
Drops below altitude 10° 23:39:44 10° 327° (NNW) 2,261 ? -22.2°
Sets 23:42:13 0° 337° (NNW) 3,163 ? -22.3°
